www.pogodaiklimat.ru

Погода и климат >> Архив погоды >> Гана >> Акюс


ПОГОДА в Акюсе

  • Прогноз погоды в Акюсе
  • Монитор погоды в Акюсе

АРХИВ ПОГОДЫ в Акюсе

Время (UTC), дата Ветер
(напр.,м/с)
 
Видим.   Явления Облачность Т
(С)
Тd
(С)
f
(%)
Тe
(С)
Тes
(С)
Комфортность P
(гПа)
Po
(гПа)
Тmin
(С)
Tmax
(С)
R
(мм)
R24
(мм)
S
(см)
12 15.01 СВ 1 6000 м мгла 4/4 480 м
[Cu med, cong]
+34.0 +24.6 58 +47 +59 опасность
перегрева
1011.8 1012.0
15 15.01 С 1 8000 м мгла 4/4 540 м
[Cu med, cong Ci sp]
+33.6 +22.9 54 +44 +50 опасность
перегрева
1009.0 1009.0
21 15.01 ЮВ 1 8000 м дымка ясно +29.0 +25.9 83 +43 +43 опасность
перегрева
1012.9 1013.0
00 16.01 ЮЗ 2 8000 м дымка ясно +28.0 +25.3 85 +41 +41 опасность
перегрева
1012.2 1012.0
09 16.01 ЮЗ 1 8000 м мгла 8/0
[]
+30.5 +25.1 73 +44 +50 опасность
перегрева
1013.5 1014.0
12 16.01 ЮЗ 1 8000 м мгла 6/5 450 м
[Cu med, cong Ci sp]
+35.0 +25.8 59 +50 +60 опасность
перегрева
1011.5 1012.0
18 16.01 ЮВ 1 8000 м мгла 9/0
[Cs]
+31.0 +25.7 73 +46 +46 опасность
перегрева
1010.0 1010.0 +37.0
21 16.01 ЮЗ 1 8000 м дымка 9/0
[Cs]
+29.5 +26.2 82 +45 +45 опасность
перегрева
1012.0 1012.0
00 17.01 штиль 0 6000 м дымка 8/0
[Cs]
+28.5 +26.1 87 +43 +43 опасность
перегрева
1012.1 1012.0
03 17.01 штиль 0 8000 м дымка 4/0
[Ci sp]
+27.0 +24.3 85 +38 +38 очень
душно
1010.9 1011.0
06 17.01 ЮЗ 1 8000 м дымка 6/1 400 м
[Sc Ci sp]
+27.0 +24.3 85 +38 +38 очень
душно
1011.7 1012.0 +26.5
12 17.01 СЗ 2 8000 м мгла 6/4 480 м
[Cu med, cong Ci sp]
+34.5 +25.2 59 +49 +60 опасность
перегрева
1011.1 1011.0
15 17.01 ЮВ 3 8000 м мгла 5/5 500 м
[Cu med, cong]
+36.5 +24.5 50 +49 +53 опасность
перегрева
1008.0 1008.0
12 18.01 ЮВ 2 н/о мгла 5/5 500 м
[Cu med, cong]
+34.5 +24.5 56 +47 +56 опасность
перегрева
1012.2 1012.0
09 19.01 З 1 8000 м мгла 8/0
[Cs]
+30.5 +25.5 75 +45 +54 опасность
перегрева
1014.1 1014.0
12 19.01 Ю 1 8000 м мгла 8/5 450 м
[Cu med, cong Cs]
+35.0 +22.7 49 +45 +54 опасность
перегрева
1013.6 1014.0
15 19.01 Ю 2 8000 м мгла 9/3 450 м
[Cu med, cong Ci sp]
+34.5 +21.3 46 +42 +47 опасность
перегрева
1010.3 1010.0
18 19.01 ЮЗ 1 8000 м мгла 9/4 360 м
[Cu Sc Cs]
+32.0 +23.4 60 +43 +43 опасность
перегрева
1011.8 1012.0 +35.6
21 19.01 ЮЗ 1 8000 м мгла 4/0
[Ac trans Ci sp]
+29.0 +24.3 76 +41 +41 опасность
перегрева
1014.3 1014.0
03 20.01 штиль 0 8000 м дымка 4/0
[Ac trans]
+26.3 +24.5 90 +37 +37 очень
душно
1012.8 1013.0
12 20.01 З 1 8000 м мгла 6/5 450 м
[Cu med, cong Ci sp]
+33.0 +25.0 63 +47 +57 опасность
перегрева
1013.5 1014.0
15 20.01 СЗ 1 12 км 9/6 450 м
[Cu Sc Ci sp]
+34.0 +24.8 59 +47 +51 опасность
перегрева
1010.5 1011.0
18 20.01 З 1 8000 м гроза без осадков 9/5 360 м
[Cb cap Cs]
+27.0 +24.3 85 +38 +38 очень
душно
1011.9 1012.0 +35.4 0.0
21 20.01 ЮВ 2 12 км {гроза} 8/3 360 м
[Sc Cs]
+25.8 +23.6 88 +35 +35 очень
душно
1013.9 1014.0
00 21.01 штиль 0 12 км {гроза} 8/0
[Cs]
+25.0 +23.6 92 +34 +34 очень
душно
1014.3 1014.0
06 21.01 штиль 0 12 км 5/0
[Ci sp]
+25.0 +23.6 92 +34 +34 очень
душно
1013.3 1013.0 +24.0 0.0
09 21.01 ЮВ 1 3200 м ясно +29.8 +24.0 71 +41 +51 опасность
перегрева
1014.4 1014.0
12 21.01 СВ 1 12 км ясно +34.1 +21.9 49 +43 +64 опасность
перегрева
1012.5 1013.0
15 21.01 СЗ 2 8000 м мгла ясно +36.5 +13.7 26 +37 +46 очень
жарко
1010.2 1010.0
18 21.01 ЮВ 1 8000 м мгла 3/0
[Ci sp]
+32.7 +24.6 62 +45 +45 опасность
перегрева
1010.0 1010.0 +36.5
21 21.01 ЮЗ 2 8000 м мгла 8/0
[Ac trans Ci sp]
+28.5 +24.4 79 +40 +40 очень
душно
1013.0 1013.0
00 22.01 штиль 0 8000 м дымка 8/0
[Cs]
+27.0 +24.8 88 +39 +39 очень
душно
1012.7 1013.0
03 22.01 штиль 0 8000 м дымка 8/0
[Ac trans Cs]
+25.6 +24.4 93 +36 +36 очень
душно
1009.7 1010.0
09 22.01 СЗ 1 8000 м дымка 4/0
[Ac trans]
+23.5 +24.1 100 +32 +40 очень
душно
1013.5 1014.0

 

Местоположение метеостанции Акюс (Гана): широта 6.10 долгота 0.12 высота над уровнем моря 19 м.

В архиве по умолчанию представлена погода в Акюсе за последнюю неделю. Архивные данные за месяц целиком и за предыдущие месяцы, начиная с января 2011 года, Вы можете получить, выбрав интересующий диапазон дат из раскрывающегося списка и нажав кнопку "Ввод!".


*Определитесь, кто Вы:
робот инопланетянин человек

Внимание! Время в таблицах - всемирное. Для получения местного времени необходимо прибавить поправку, которая равна 1 ч.

Смотрите также архив погоды в соседних городах и на ближайших метеорологических станциях:

Погода в Кофоридуа (Гана) (41 км)
Погода в Тема (Гана) (55 км)
Погода в Аккра (Гана) (64 км)
Погода в Ада (Гана) (67 км)
Погода в Хо (Гана) (68 км)
Погода в Акатзи (Гана) (75 км)
Погода в Абетифи (Гана) (115 км)
Погода в Аким Ода (Гана) (123 км)
Погода в Ломе (Того) (125 км)
Погода в Таблигбо (Того) (162 км)

Пояснения к столбцам:

Ветер - указаны скорость ветра в м/с - средняя за 10 мин, порывы в срок и между сроками (в фигурных скобках) и направление, откуда дует ветер: С - северный, СВ - северо-восточный, В - восточный, ЮВ - юго-восточный, Ю - южный, ЮЗ - юго-западный, З - западный, СЗ - северо-западный.
Видимость - горизонтальная дальность видимости в метрах или километрах. При видимости от 1 до 10 км при отсутствии осадков обычно наблюдается дымка, при ухудшении видимости до 1 км и менее - туман. В сухую погоду видимость может ухудшаться дымом, пылью или мглою.
Явления - указаны атмосферные явления, наблюдавшиеся в срок или в последний час перед сроком; фигурными скобками обозначены явления, наблюдавшиеся между сроками (за 1-3 часа до срока); квадратными скобками обозначены град или гололедные отложения с указанием их диаметра в мм.
Облачность - указаны через наклонную черту общая и нижняя облачность в баллах и высота нижней границы облаков в метрах; квадратными скобками обозначены формы облаков: Ci - перистые, Cs - перисто-слоистые, Cc - перисто-кучевые, Ac - высококучевые, As - высокослоистые, Sc - слоисто-кучевые, Ns - слоисто-дождевые, Cu - кучевые, Cb - кучево-дождевые. Подробнее классификацию облаков см. в Атласе облаков (PDF).
T - Температура воздуха - температура, измеренная на высоте 2 м над землей.
Td - Температура точки росы - температура, при понижении до которой содержащийся в воздухе водяной пар достигнет насыщения.
f - Относительная влажность воздуха - влажноcть воздуха, измеренная на высоте 2 м над землей.
Te - Эффективная температура - температура, которую ощущает одетый по сезону человек в тени. Характеристика душности погоды. При расчете учитывается влияние влажности воздуха и скорости ветра на теплоощущения человека.
Tes - Эффективная температура на солнце - температура, которую ощущает человек, с поправкой на солнечный нагрев. Характеристика знойности погоды. Зависит от высоты солнца над горизонтом, облачности и скорости ветра. Ночью, в пасмурную погоду, а также при ветре 12 м/с и более поправка равна нулю.
P - Атмосферное давление - приведенное к уровню моря атмосферное давление.
Po - Атмосферное давление - измеренное на уровне метеостанции атмосферное давление.
Tmin - Минимальная температура - минимум температуры воздуха на высоте 2 м над землей.
Tmax - Максимальная температура - максимум температуры воздуха на высоте 2 м над землей.
R - Количество осадков - Количество выпавших осадков за период времени, мм. При наведении курсора мыши на число - период времени, за который выпало указанное количество осадков.
R24 - Количество осадков - Количество выпавших осадков за 24 часа, мм.
S - Снежный покров - Высота снежного покрова, см. При наведении курсора мыши на число - состояние снежного покрова и степень покрытия местности в баллах.